Stanley, ND

7:14 AM CDT on August 26, 2016 (GMT -0500)
Stanley

Weather History for K08D - October, 2012

Change the Weather History Date:

Wednesday, October 3, 2012

  Actual Average (KMOT) Record (KMOT)
Temperature  
Mean Temperature 40 °F 50 °F  
Max Temperature 44 °F 62 °F 89 °F (1914)
Min Temperature 33 °F 39 °F 19 °F (1989)
Degree Days  
Heating Degree Days 26 15  
Month to date heating degree days 43  
Since 1 July heating degree days 363  
Cooling Degree Days 0 0  
Month to date cooling degree days 0  
Year to date cooling degree days 444  
Moisture  
Dew Point 36 °F    
Average Humidity 93    
Maximum Humidity 100    
Minimum Humidity 71    
Precipitation  
Precipitation 0.88 in 0.04 in 1.24 in (2012)
Month to date precipitation 0.13  
Year to date precipitation 15.03  
Sea Level Pressure  
Sea Level Pressure 30.09 in    
Wind  
Wind Speed 10 mph (North)    
Max Wind Speed 17 mph    
Max Gust Speed 26 mph    
Visibility 10 miles    
Events Rain , Snow    
T = Trace of Precipitation, MM = Missing Value Source: NWS Daily Summary

Daily Weather History Graph

Daily Weather History Graph

Search for Another Location

Airport or City:

Trip Planner

Search our weather history database for the weather conditions in past years. The results will help you decide how hot, cold, wet, or windy it might be!

Date:

Astronomy

Oct. 03, 2012 Rise Set
Actual Time 7:52 AM CDT 7:23 PM CDT
Civil Twilight 7:21 AM CDT 7:54 PM CDT
Nautical Twilight 6:45 AM CDT 8:30 PM CDT
Astronomical Twilight 6:08 AM CDT 9:07 PM CDT
Moon 8:57 PM CDT (10/3) 11:37 AM CDT (10/3)
Length of Visible Light 12h 33m
Length of Day
11h 30m
Waning Gibbous, 88% of the Moon is Illuminated
Oct 3
Waning Gibbous
Oct 8
Last Quarter
Oct 15
New
Oct 21
First Quarter
Oct 29
Full

Hourly Weather History & Observations

Time (CDT) Temp. Windchill Dew Point Humidity Pressure Visibility Wind Dir Wind Speed Gust Speed Precip Events Conditions
12:15 AM 44.6 °F 43.1 °F 35.6 °F 71% 29.89 in 10.0 mi North 3.5 mph - N/A   Clear
12:35 AM 42.8 °F 38.6 °F 35.6 °F 76% 29.91 in 10.0 mi NW 6.9 mph - N/A   Clear
12:55 AM 41.0 °F 34.3 °F 35.6 °F 81% 29.91 in 10.0 mi NNW 11.5 mph - N/A   Clear
1:15 AM 41.0 °F 37.1 °F 35.6 °F 81% 29.92 in 10.0 mi North 5.8 mph - N/A   Partly Cloudy
1:35 AM 41.0 °F 35.8 °F 35.6 °F 81% 29.93 in 10.0 mi NNW 8.1 mph - N/A   Scattered Clouds
1:55 AM 41.0 °F 36.4 °F 35.6 °F 81% 29.93 in 10.0 mi NNW 6.9 mph - N/A   Mostly Cloudy
2:15 AM 39.2 °F - 33.8 °F 81% 29.92 in 10.0 mi Calm Calm - N/A   Scattered Clouds
2:35 AM 37.4 °F 31.4 °F 32.0 °F 81% 29.94 in 10.0 mi NNW 8.1 mph - N/A   Mostly Cloudy
2:55 AM 39.2 °F 33.0 °F 32.0 °F 75% 29.92 in 10.0 mi North 9.2 mph - N/A   Mostly Cloudy
3:15 AM 41.0 °F 36.4 °F 33.8 °F 76% 29.93 in 10.0 mi NNW 6.9 mph - N/A   Mostly Cloudy
3:35 AM 41.0 °F 35.8 °F 33.8 °F 76% 29.94 in 10.0 mi NNW 8.1 mph - N/A   Mostly Cloudy
3:55 AM 39.2 °F 35.9 °F 32.0 °F 75% 29.95 in 10.0 mi North 4.6 mph - N/A   Mostly Cloudy
4:15 AM 37.4 °F - 32.0 °F 81% 29.95 in 10.0 mi Calm Calm - N/A   Mostly Cloudy
4:35 AM 39.2 °F 35.9 °F 33.8 °F 81% 29.96 in 10.0 mi North 4.6 mph - N/A   Overcast
4:55 AM 41.0 °F 37.1 °F 33.8 °F 76% 29.96 in 10.0 mi North 5.8 mph - N/A   Overcast
5:15 AM 39.2 °F 33.6 °F 33.8 °F 81% 29.94 in 10.0 mi North 8.1 mph - N/A   Mostly Cloudy
5:35 AM 39.2 °F 32.0 °F 35.6 °F 87% 29.97 in 10.0 mi NNW 11.5 mph - N/A   Mostly Cloudy
5:55 AM 41.0 °F 35.2 °F 35.6 °F 81% 29.99 in 10.0 mi NNW 9.2 mph - N/A Rain Light Rain
6:15 AM 39.2 °F 32.0 °F 37.4 °F 93% 30.00 in 10.0 mi NNW 11.5 mph - N/A   Overcast
6:35 AM 39.2 °F 31.6 °F 35.6 °F 87% 30.00 in 10.0 mi North 12.7 mph 19.6 mph N/A   Overcast
6:55 AM 39.2 °F 31.2 °F 35.6 °F 87% 29.99 in 10.0 mi North 13.8 mph - N/A   Overcast
7:15 AM 39.2 °F 31.6 °F 37.4 °F 93% 30.00 in 10.0 mi North 12.7 mph - N/A Rain Light Rain
7:35 AM 39.2 °F 31.2 °F 37.4 °F 93% 29.99 in 10.0 mi NNE 13.8 mph - 0.02 in Rain Light Rain
7:55 AM 39.2 °F 31.6 °F 37.4 °F 93% 29.98 in 10.0 mi NNE 12.7 mph - 0.06 in Rain Rain
8:15 AM 39.2 °F 31.6 °F 37.4 °F 93% 29.99 in 10.0 mi NNE 12.7 mph - N/A Rain Light Rain
8:35 AM 39.2 °F 31.6 °F 37.4 °F 93% 29.99 in 10.0 mi North 12.7 mph 19.6 mph 0.04 in Rain Rain
8:55 AM 39.2 °F 30.8 °F 37.4 °F 93% 29.99 in 10.0 mi North 15.0 mph 20.7 mph 0.07 in Rain Light Rain
9:15 AM 39.2 °F 30.5 °F 37.4 °F 93% 29.99 in 10.0 mi North 16.1 mph 21.9 mph 0.01 in   Scattered Clouds
9:35 AM 39.2 °F 32.5 °F 37.4 °F 93% 30.00 in 10.0 mi NNE 10.4 mph 19.6 mph 0.02 in   Mostly Cloudy
9:55 AM 39.2 °F 31.6 °F 39.2 °F 100% 30.02 in 10.0 mi NNE 12.7 mph 18.4 mph 0.02 in Rain Light Rain
10:15 AM 39.2 °F 32.5 °F 39.2 °F 100% 30.02 in 10.0 mi NNE 10.4 mph 16.1 mph 0.01 in Rain Light Rain
10:35 AM 39.2 °F 32.0 °F 39.2 °F 100% 30.02 in 10.0 mi NNE 11.5 mph 17.3 mph 0.05 in Rain Rain
10:55 AM 39.2 °F 33.0 °F 39.2 °F 100% 30.04 in 10.0 mi NNE 9.2 mph 16.1 mph 0.10 in Rain Light Rain
11:15 AM 39.2 °F 32.5 °F 39.2 °F 100% 30.03 in 10.0 mi NNE 10.4 mph 16.1 mph 0.01 in Rain Light Rain
11:35 AM 41.0 °F 33.9 °F 39.2 °F 93% 30.06 in 10.0 mi NNE 12.7 mph 16.1 mph 0.05 in Rain Rain
11:55 AM 41.0 °F 35.2 °F 39.2 °F 93% 30.06 in 10.0 mi NNE 9.2 mph 16.1 mph 0.09 in Rain Rain
12:15 PM 41.0 °F 32.8 °F 41.0 °F 100% 30.07 in 10.0 mi NNE 16.1 mph 21.9 mph 0.02 in   Mostly Cloudy
12:55 PM 39.2 °F 30.8 °F 39.2 °F 100% 30.09 in 10.0 mi NNE 15.0 mph 21.9 mph 0.15 in Rain Rain
1:15 PM 39.2 °F 30.5 °F 39.2 °F 100% 30.11 in 9.0 mi NNE 16.1 mph 20.7 mph 0.04 in Rain Light Rain
1:35 PM 39.2 °F 31.2 °F 39.2 °F 100% 30.11 in 10.0 mi NNE 13.8 mph 21.9 mph 0.10 in Rain Rain
1:55 PM 39.2 °F 30.5 °F 39.2 °F 100% 30.10 in 10.0 mi NE 16.1 mph 23.0 mph 0.13 in Rain Light Rain
2:15 PM 39.2 °F 31.2 °F 39.2 °F 100% 30.12 in 10.0 mi NNE 13.8 mph 20.7 mph 0.01 in   Mostly Cloudy
2:35 PM 39.2 °F 30.8 °F 39.2 °F 100% 30.13 in 10.0 mi NNE 15.0 mph 23.0 mph 0.03 in Rain Light Rain
2:55 PM 39.2 °F 30.8 °F 37.4 °F 93% 30.13 in 10.0 mi NNE 15.0 mph 26.5 mph 0.04 in   Mostly Cloudy
3:15 PM 37.4 °F 29.3 °F 37.4 °F 100% 30.16 in 9.0 mi NNE 12.7 mph 21.9 mph 0.02 in Rain Rain
3:35 PM 37.4 °F 28.5 °F 37.4 °F 100% 30.15 in 10.0 mi NE 15.0 mph 21.9 mph 0.05 in Rain Light Rain
3:55 PM 37.4 °F 28.9 °F 37.4 °F 100% 30.16 in 8.0 mi NNE 13.8 mph 23.0 mph 0.09 in Rain Rain
4:15 PM 37.4 °F 28.5 °F 37.4 °F 100% 30.17 in 10.0 mi NNE 15.0 mph 21.9 mph 0.01 in   Scattered Clouds
4:35 PM 37.4 °F 28.5 °F 37.4 °F 100% 30.18 in 10.0 mi NNE 15.0 mph 23.0 mph 0.02 in   Mostly Cloudy
5:15 PM 37.4 °F 28.5 °F 37.4 °F 100% 30.19 in 10.0 mi NNE 15.0 mph 24.2 mph N/A Rain Light Rain
5:35 PM 37.4 °F 28.2 °F 35.6 °F 93% 30.20 in 10.0 mi NNE 16.1 mph 26.5 mph 0.01 in   Scattered Clouds
5:55 PM 37.4 °F 27.8 °F 37.4 °F 100% 30.22 in 10.0 mi North 17.3 mph 21.9 mph 0.02 in   Scattered Clouds
6:15 PM 35.6 °F 28.0 °F 35.6 °F 100% 30.22 in 10.0 mi NNE 10.4 mph 23.0 mph N/A   Partly Cloudy
6:35 PM 35.6 °F 26.6 °F 35.6 °F 100% 30.23 in 10.0 mi North 13.8 mph 21.9 mph 0.02 in   Scattered Clouds
6:55 PM 35.6 °F 25.9 °F 35.6 °F 100% 30.24 in 10.0 mi North 16.1 mph - 0.04 in   Scattered Clouds
7:15 PM 35.6 °F 27.1 °F 35.6 °F 100% 30.25 in 10.0 mi NNE 12.7 mph 20.7 mph N/A   Scattered Clouds
7:35 PM 35.6 °F 26.6 °F 35.6 °F 100% 30.26 in 10.0 mi North 13.8 mph 19.6 mph 0.01 in   Mostly Cloudy
7:55 PM 35.6 °F 26.2 °F 35.6 °F 100% 30.28 in 10.0 mi North 15.0 mph - 0.01 in Rain Light Rain
8:15 PM 35.6 °F 26.2 °F 35.6 °F 100% 30.28 in 10.0 mi North 15.0 mph - N/A   Mostly Cloudy
8:35 PM 35.6 °F 26.6 °F 35.6 °F 100% 30.28 in 10.0 mi North 13.8 mph 20.7 mph N/A Rain Light Rain
8:55 PM 35.6 °F 25.9 °F 35.6 °F 100% 30.29 in 10.0 mi North 16.1 mph - 0.01 in Rain Light Rain
9:35 PM 35.6 °F 25.9 °F 35.6 °F 100% 30.30 in 10.0 mi North 16.1 mph 20.7 mph 0.01 in   Mostly Cloudy
9:55 PM 35.6 °F 26.2 °F 35.6 °F 100% 30.30 in 10.0 mi North 15.0 mph - 0.02 in   Mostly Cloudy
10:15 PM 35.6 °F 26.2 °F 35.6 °F 100% 30.31 in 10.0 mi North 15.0 mph - N/A Rain Light Rain
10:35 PM 35.6 °F 25.9 °F 35.6 °F 100% 30.31 in 10.0 mi North 16.1 mph - 0.01 in Snow Light Snow
10:55 PM 35.6 °F 25.5 °F 35.6 °F 100% 30.31 in 10.0 mi North 17.3 mph - 0.01 in Rain Light Rain
11:15 PM 35.6 °F 25.9 °F 35.6 °F 100% 30.32 in 10.0 mi North 16.1 mph 23.0 mph N/A Rain Light Rain
11:35 PM 35.6 °F 25.5 °F 35.6 °F 100% 30.32 in 10.0 mi North 17.3 mph - N/A Rain Light Rain
11:55 PM 33.8 °F 23.9 °F 33.8 °F 100% 30.33 in 10.0 mi North 15.0 mph - N/A Rain Light Rain